Location: *
(36.0976°S, 93.4461°E)
Time: 05:23:17
(UTC+00:00)

Daily predictions for brighter satellites

Satellite Brightness Start Highest point End
(mag) Time Altitude Azimuth Time Altitude Azimuth Time Altitude Azimuth
STARLINK-1139 4.3 00:01:09 10° SW 00:05:17 51° SE 00:09:22 10° ENE
Cosmos 2173 Rocket 4.0 00:01:11 10° SSW 00:07:15 62° W 00:13:15 10° N
FengYun 1-2 T 4.2 00:03:30 10° N 00:09:01 70° WNW 00:14:35 10° SSW
Okean O Rocket 3.3 00:06:50 10° NW 00:09:18 15° W 00:11:48 10° WSW
Meteor 1-20 Rocket 4.4 00:03:46 10° SSW 00:09:32 58° W 00:15:10 10° N
STARLINK-1174 4.1 00:06:07 10° SW 00:10:17 57° SE 00:14:24 10° ENE
Cosmos 1151 Rocket 4.4 00:07:38 10° WNW 00:10:46 19° WSW 00:13:56 10° SSW
SMAP 4.2 00:09:48 10° NNW 00:13:36 24° W 00:17:27 10° SW
Cosmos 1238 Rocket 4.1 00:12:54 10° SW 00:14:43 14° W 00:16:38 10° NW
Cosmos 1459 Rocket 4.2 00:08:47 10° SSW 00:15:03 55° W 00:21:12 10° NNW
STARLINK-1149 4.0 00:11:02 10° SW 00:15:14 63° SE 00:19:23 10° ENE
SL-8 R/B 4.1 00:13:22 10° WNW 00:18:02 46° SSW 00:22:44 10° SE
STARLINK-1180 3.9 00:16:02 10° SW 00:20:15 70° SE 00:24:25 10° NE
Cosmos 405 4.0 00:16:49 10° N 00:20:18 52° E 00:23:50 10° SSE
STARLINK-1015 4.0 11:00:35 10° NNW 11:04:39 54° NE 11:08:46 10° SE
SL-4 R/B 2.7 11:01:58 10° SSW 11:05:21 32° SE 11:08:57 10° E
Cosmos 1680 Rocket 3.6 11:01:00 10° N 11:06:14 66° ENE 11:11:30 10° SSE
MOS 1-B 4.5 11:01:14 10° SSE 11:07:03 59° ENE 11:12:45 10° N
Cosmos 2219 Rocket 2.5 11:03:09 10° NNW 11:08:50 77° WSW 11:14:35 10° SSE
Cosmos 923 Rocket 4.2 11:03:46 10° NNW 11:09:07 87° WSW 11:14:34 10° SSE
STARLINK-1016 3.8 11:05:30 10° NNW 11:09:37 61° NE 11:13:46 10° SE
Cosmos 1805 Rocket 3.5 11:07:52 10° N 11:12:14 74° E 11:16:41 10° S
Meteor 2-20 4.5 11:06:45 10° S 11:12:58 68° E 11:19:06 10° NNE
STARLINK-81 3.5 11:09:29 10° NW 11:13:22 83° NE 11:17:18 10° SE
Cosmos 1844 3.8 11:08:30 10° SSW 11:14:08 84° WNW 11:19:42 10° NNE
STARLINK-60 4.0 11:11:24 10° SSW 11:14:16 27° SE 11:17:06 10° E
STARLINK-1008 3.7 11:10:27 10° NW 11:14:35 68° NE 11:18:47 10° SE
STARLINK-54 3.5 11:10:48 10° NW 11:14:40 85° SW 11:18:35 10° SE
STARLINK-77 3.4 11:12:16 10° NW 11:16:07 88° NE 11:20:02 10° SE
Cosmos 1812 3.5 11:13:13 10° SSE 11:16:43 30° ESE 11:20:09 10° NE
CZ-4B DEB 4.2 11:12:48 10° SSE 11:18:21 74° ENE 11:23:52 10° N
Cosmos 1238 Rocket 4.0 11:14:57 10° NNE 11:19:02 29° E 11:22:33 10° SSE
STARLINK-1014 3.7 11:15:23 10° NW 11:19:35 76° NE 11:23:49 10° SE
STARLINK-79 3.5 11:17:05 10° NW 11:20:57 82° SW 11:24:51 10° SE
STARLINK-78 3.5 11:18:34 10° NW 11:22:25 79° SW 11:26:17 10° SE
Meteor 2-6 Rocket 4.1 11:17:30 10° S 11:23:02 76° E 11:28:37 10° NNE
Cosmos 1461 4.3 11:21:03 10° S 11:23:42 17° SE 11:26:03 11° E
STARLINK-57 3.6 11:20:19 10° NW 11:24:09 71° SW 11:27:59 10° SE
Lacrosse 5 rocket 2.7 11:20:40 10° N 11:24:09 25° ENE 11:27:19 12° ESE
STARLINK-1010 3.7 11:19:58 10° NW 11:24:14 89° WSW 11:28:27 11° SE
Cosmos 1980 4.0 11:18:52 10° N 11:24:20 51° ENE 11:29:51 10° SSE
STARLINK-1025 3.6 11:20:22 10° NW 11:24:33 84° NE 11:28:35 11° SE
Helios 1A Rocket 4.5 11:21:58 10° SE 11:24:40 17° E 11:27:21 10° NE
STARLINK-49 3.6 11:21:55 10° NW 11:25:45 73° SW 11:29:30 11° SE
PAYLOAD B 4.2 11:20:39 10° SSE 11:26:13 73° ENE 11:31:43 10° N
STARLINK-27 3.6 11:23:19 10° NW 11:27:08 71° SW 11:30:48 11° SE
STARLINK-74 3.6 11:25:01 10° NW 11:28:50 68° SW 11:32:26 12° SE
STARLINK-1017 3.6 11:25:18 10° NW 11:29:28 87° SW 11:33:19 12° SE
Envisat 3.8 11:24:56 10° SE 11:29:30 32° E 11:34:01 10° NNE
STARLINK-39 3.7 11:26:33 10° NW 11:30:21 65° SW 11:33:54 12° SE
COSMO-SKYMED 1 3.7 11:27:23 10° N 11:31:36 48° W 11:35:53 10° SSW
STARLINK-31 3.7 11:28:09 10° WNW 11:31:57 62° SW 11:35:26 12° SE
STARLINK-69 3.9 11:29:55 10° WNW 11:33:40 54° SW 11:37:06 12° SE
STARLINK-1023 3.7 11:30:15 10° NW 11:34:26 79° SW 11:38:05 14° SE
STARLINK-21 3.9 11:31:24 10° WNW 11:35:09 57° SW 11:38:30 13° SE
STARLINK-45 4.1 11:33:16 10° WNW 11:36:59 49° SW 11:40:17 13° SE
Cosmos 1470 Rocket 4.5 11:34:01 10° NNE 11:37:54 29° E 11:41:48 10° SSE
STARLINK-70 4.1 11:34:56 10° WNW 11:38:39 50° SW 11:41:53 13° SE
STARLINK-1007 3.8 11:35:18 10° NW 11:39:28 71° SW 11:42:56 15° SE
NOSS 0 Rocket 4.0 11:33:16 10° NNW 11:39:31 86° ENE 11:45:50 10° SSE
STARLINK-76 4.0 11:36:22 10° WNW 11:40:05 51° SW 11:43:14 14° SE
Cosmos 1707 Rocket 3.6 11:35:58 10° S 11:40:24 59° E 11:44:43 10° NNE
COSMOS 2428 3.8 11:35:25 10° NW 11:40:54 46° WSW 11:46:28 10° S
STARLINK-23 4.1 11:38:02 10° WNW 11:41:45 49° SW 11:44:50 14° SSE
STARLINK-29 4.2 11:40:19 10° SSW 11:43:07 25° SE 11:43:59 22° ESE
USA 116 4.4 11:38:29 10° N 11:43:09 84° WNW 11:48:22 10° SSW
STARLINK-32 4.2 11:39:38 10° WNW 11:43:19 47° SW 11:46:20 15° SSE
STARLINK-71 4.4 11:39:40 10° WNW 11:43:36 47° SW 11:46:54 14° SSE
STARLINK-1048 3.9 11:40:18 10° NW 11:44:26 64° SW 11:47:42 16° SE
ATLAS 5 CENTAUR R/B 2.7 11:37:24 10° NNW 11:44:35 70° ENE 11:51:07 11° SE
Cosmos 405 3.1 11:41:33 10° SSW 11:45:07 76° W 11:48:37 10° N
Cosmos 1441 Rocket 4.3 11:42:03 10° NNE 11:45:19 25° E 11:46:40 21° ESE
STARLINK-40 4.2 11:41:38 10° WNW 11:45:20 46° SW 11:48:18 15° SSE
Meteor 1-27 Rocket 3.9 11:39:46 10° S 11:45:39 60° E 11:51:31 10° NNE
STARLINK-44 4.3 11:42:55 10° WNW 11:46:35 44° SW 11:49:28 15° SSE
SL-24 R/B - RUBIN 2 4.1 11:42:50 10° N 11:47:54 48° ENE 11:51:06 19° SE
Cosmos 1624 Rocket 4.3 11:42:54 10° S 11:47:57 44° ESE 11:52:59 10° NE
Cosmos 2173 Rocket 4.3 11:42:12 10° NNE 11:48:07 44° E 11:54:00 10° SSE
STARLINK-37 4.5 11:45:08 10° WNW 11:48:46 40° SW 11:51:36 15° SSE
STARLINK-1049 4.1 11:45:18 10° WNW 11:49:25 58° SW 11:52:28 17° SE
STARLINK-36 4.4 11:46:14 10° WNW 11:49:52 41° SW 11:52:36 16° SSE
H-2A R/B 2.9 11:48:09 10° S 11:52:04 78° WSW 11:55:58 10° NNW
Cosmos 2237 Rocket 2.2 11:46:38 10° NNW 11:52:18 84° ENE 11:58:01 10° SSE
STARLINK-1051 4.2 11:50:20 10° WNW 11:54:25 52° SW 11:57:16 19° SSE
Cosmos 1862 Rocket 4.1 11:50:09 10° S 11:54:25 38° E 11:58:38 10° NNE
AQUARIUS 4.2 11:50:42 10° SSE 11:55:12 56° E 11:59:37 10° N
